When you browse on this site, cookies collect data to enhance your experience and personalize the content and advertising you see.
Visit our Privacy Policy to learn more. By continuing to use the site, you agree to this use of cookies and data.
  • En España
  • Lista de países
  • Para 7 días
  • Temperatura del agua
  • El tiempo en el mapa
  • Informadores
  • user-avatar
    Iniciar sesión

    Tiempo cada hora Andora

    Hoy, 13 Diciembre, Viernes

    Tiempo Temperatura Precipitaciones Viento Presión Humedad
    00:00 +1°C° 2.9 mm 1 mps 611 mmHg 98%
    01:00 -1°C° 2.1 mm 2 mps 611 mmHg 98%
    02:00 -1°C° 2.1 mm 2 mps 611 mmHg 98%
    03:00 +1°C° 2.1 mm 2 mps 610 mmHg 98%
    04:00 +1°C° 1.6 mm 2 mps 610 mmHg 99%
    05:00 +1°C° 1.6 mm 2 mps 610 mmHg 99%
    06:00 +2°C° 1.6 mm 1 mps 610 mmHg 99%
    07:00 +1°C° 1.9 mm 2 mps 610 mmHg 99%
    08:00 +2°C° 1.9 mm 2 mps 611 mmHg 99%
    09:00 +2°C° 1.9 mm 2 mps 611 mmHg 98%
    10:00 +2°C° 3 mm 2 mps 611 mmHg 98%
    11:00 +2°C° 3 mm 2 mps 611 mmHg 98%
    12:00 +1°C° 3 mm 3 mps 612 mmHg 97%
    13:00 +1°C° 1.1 mm 3 mps 612 mmHg 97%
    14:00 +1°C° 1.1 mm 3 mps 612 mmHg 97%
    15:00 +1°C° 1.1 mm 3 mps 612 mmHg 97%
    16:00 +1°C° 2.5 mm 3 mps 612 mmHg 98%
    17:00 +2°C° 2.5 mm 2 mps 613 mmHg 98%
    18:00 +2°C° 2.5 mm 2 mps 614 mmHg 99%
    19:00 +2°C° 2 mm 2 mps 614 mmHg 99%
    20:00 +2°C° 2 mm 2 mps 614 mmHg 99%
    21:00 +2°C° 2 mm 2 mps 615 mmHg 99%
    22:00 +2°C° 1.3 mm 2 mps 615 mmHg 98%
    23:00 +2°C° 1.3 mm 2 mps 616 mmHg 98%

    Mañana, 14 Diciembre, Sábado

    Tiempo Temperatura Precipitaciones Viento Presión Humedad
    00:00 +2°C° 1.3 mm 2 mps 616 mmHg 98%
    01:00 +2°C° 0.1 mm 2 mps 616 mmHg 98%
    02:00 +2°C° 0.1 mm 2 mps 616 mmHg 98%
    03:00 +2°C° 0.1 mm 2 mps 617 mmHg 98%
    04:00 +2°C° 0 mm 2 mps 617 mmHg 96%
    05:00 0°C° 0 mm 3 mps 617 mmHg 95%
    06:00 0°C° 0 mm 3 mps 617 mmHg 94%
    07:00 +1°C° 0 mm 2 mps 618 mmHg 94%
    08:00 +2°C° 0 mm 2 mps 619 mmHg 93%
    09:00 +2°C° 0 mm 2 mps 619 mmHg 93%
    10:00 +4°C° 0 mm 1 mps 620 mmHg 93%
    11:00 +4°C° 0 mm 1 mps 620 mmHg 92%
    12:00 +4°C° 0 mm 0 mps 620 mmHg 91%
    13:00 +4°C° 0 mm 0 mps 620 mmHg 92%
    14:00 +5°C° 0 mm 1 mps 620 mmHg 93%
    15:00 +5°C° 0 mm 1 mps 620 mmHg 94%
    16:00 +4°C° 0 mm 1 mps 620 mmHg 94%
    17:00 +3°C° 0 mm 1 mps 619 mmHg 94%
    18:00 +2°C° 0 mm 1 mps 619 mmHg 93%
    19:00 +1°C° 0 mm 1 mps 619 mmHg 91%
    20:00 +1°C° 0 mm 1 mps 619 mmHg 89%
    21:00 +1°C° 0 mm 1 mps 619 mmHg 87%
    22:00 +1°C° 0 mm 1 mps 619 mmHg 86%
    23:00 +1°C° 0 mm 1 mps 619 mmHg 85%

    Pasado mañana, 15 Diciembre, Domingo

    Tiempo Temperatura Precipitaciones Viento Presión Humedad
    00:00 -1°C° 0 mm 2 mps 619 mmHg 85%
    01:00 -1°C° 0 mm 2 mps 619 mmHg 84%
    02:00 -1°C° 0 mm 2 mps 619 mmHg 83%
    03:00 -1°C° 0 mm 2 mps 619 mmHg 82%
    04:00 -1°C° 0 mm 2 mps 619 mmHg 80%
    05:00 -1°C° 0 mm 2 mps 619 mmHg 77%
    06:00 -1°C° 0 mm 2 mps 619 mmHg 74%
    07:00 +1°C° 0 mm 2 mps 619 mmHg 74%
    08:00 +3°C° 0 mm 1 mps 620 mmHg 74%
    09:00 +4°C° 0 mm 1 mps 620 mmHg 73%
    10:00 +5°C° 0 mm 1 mps 620 mmHg 77%
    11:00 +4°C° 0 mm 2 mps 620 mmHg 80%
    12:00 +5°C° 0 mm 2 mps 620 mmHg 83%
    13:00 +4°C° 0 mm 2 mps 620 mmHg 84%
    14:00 +4°C° 0 mm 2 mps 619 mmHg 85%
    15:00 +4°C° 0 mm 2 mps 619 mmHg 86%
    16:00 +2°C° 0 mm 2 mps 618 mmHg 84%
    17:00 +1°C° 0 mm 2 mps 618 mmHg 83%
    18:00 -1°C° 0 mm 2 mps 618 mmHg 82%
    19:00 -1°C° 0 mm 2 mps 618 mmHg 80%
    20:00 -1°C° 0 mm 2 mps 618 mmHg 78%
    21:00 -1°C° 0 mm 2 mps 618 mmHg 76%
    22:00 -1°C° 0 mm 2 mps 618 mmHg 78%
    23:00 -1°C° 0 mm 2 mps 618 mmHg 80%

    16 Diciembre, Lunes

    Tiempo Temperatura Precipitaciones Viento Presión Humedad
    00:00 -1°C° 0 mm 2 mps 617 mmHg 82%
    01:00 +1°C° 0 mm 2 mps 617 mmHg 83%
    02:00 +1°C° 0 mm 2 mps 617 mmHg 84%
    03:00 +1°C° 0 mm 2 mps 617 mmHg 86%
    04:00 +1°C° 0 mm 2 mps 617 mmHg 86%
    05:00 0°C° 0 mm 3 mps 616 mmHg 87%
    06:00 0°C° 0 mm 3 mps 616 mmHg 87%
    07:00 +1°C° 0 mm 3 mps 616 mmHg 87%
    08:00 +1°C° 0 mm 3 mps 616 mmHg 87%
    09:00 +2°C° 0 mm 3 mps 617 mmHg 87%
    10:00 +2°C° 0 mm 3 mps 617 mmHg 87%
    11:00 +3°C° 0 mm 3 mps 616 mmHg 86%
    12:00 +3°C° 0 mm 3 mps 616 mmHg 86%
    13:00 +3°C° 0 mm 3 mps 616 mmHg 87%
    14:00 +3°C° 0 mm 3 mps 616 mmHg 88%
    15:00 +3°C° 0 mm 3 mps 615 mmHg 89%
    16:00 +2°C° 0 mm 3 mps 615 mmHg 89%
    17:00 +2°C° 0 mm 3 mps 615 mmHg 89%
    18:00 +1°C° 0 mm 3 mps 614 mmHg 89%
    19:00 +1°C° 0 mm 3 mps 614 mmHg 89%
    20:00 +1°C° 0 mm 3 mps 614 mmHg 89%
    21:00 +1°C° 0 mm 3 mps 614 mmHg 89%
    22:00 +1°C° 0 mm 3 mps 614 mmHg 89%
    23:00 0°C° 0 mm 3 mps 614 mmHg 88%

    17 Diciembre, Martes

    Tiempo Temperatura Precipitaciones Viento Presión Humedad
    00:00 +1°C° 0 mm 2 mps 614 mmHg 88%
    01:00 -1°C° 0 mm 2 mps 614 mmHg 87%
    02:00 -1°C° 0 mm 2 mps 614 mmHg 86%
    03:00 -2°C° 0 mm 2 mps 614 mmHg 86%
    04:00 -1°C° 0 mm 2 mps 614 mmHg 86%
    05:00 -1°C° 0 mm 2 mps 614 mmHg 86%
    06:00 -1°C° 0 mm 2 mps 615 mmHg 86%
    07:00 +2°C° 0 mm 1 mps 616 mmHg 87%
    08:00 +3°C° 0 mm 1 mps 617 mmHg 88%
    09:00 +4°C° 0 mm 1 mps 617 mmHg 89%
    10:00 +4°C° 0.1 mm 1 mps 618 mmHg 90%
    11:00 +5°C° 0.1 mm 1 mps 618 mmHg 90%
    12:00 +5°C° 0.1 mm 1 mps 618 mmHg 91%
    13:00 +5°C° 0.2 mm 1 mps 619 mmHg 92%
    14:00 +4°C° 0.2 mm 0 mps 619 mmHg 93%
    15:00 +4°C° 0.2 mm 0 mps 619 mmHg 94%
    16:00 +4°C° 0.1 mm 1 mps 619 mmHg 94%
    17:00 +3°C° 0.1 mm 1 mps 619 mmHg 94%
    18:00 +2°C° 0.1 mm 1 mps 619 mmHg 94%
    19:00 +2°C° 0 mm 1 mps 620 mmHg 92%
    20:00 +2°C° 0 mm 1 mps 620 mmHg 91%
    21:00 -1°C° 0 mm 2 mps 620 mmHg 89%
    22:00 +1°C° 0 mm 1 mps 621 mmHg 88%
    23:00 +1°C° 0 mm 1 mps 621 mmHg 86%

    18 Diciembre, Miércoles

    Tiempo Temperatura Precipitaciones Viento Presión Humedad
    00:00 +1°C° 0 mm 1 mps 621 mmHg 84%
    01:00 +1°C° 0 mm 1 mps 621 mmHg 83%
    02:00 +1°C° 0 mm 1 mps 621 mmHg 82%
    03:00 -1°C° 0 mm 2 mps 621 mmHg 81%
    04:00 -1°C° 0 mm 2 mps 621 mmHg 82%
    05:00 +1°C° 0 mm 2 mps 621 mmHg 82%
    06:00 +1°C° 0 mm 2 mps 621 mmHg 82%
    07:00 +2°C° 0 mm 2 mps 622 mmHg 82%
    08:00 +2°C° 0 mm 2 mps 623 mmHg 83%
    09:00 +3°C° 0 mm 2 mps 623 mmHg 84%
    10:00 +5°C° 0 mm 1 mps 623 mmHg 84%
    11:00 +6°C° 0 mm 1 mps 624 mmHg 84%
    12:00 +7°C° 0 mm 1 mps 624 mmHg 84%
    13:00 +7°C° 0 mm 1 mps 623 mmHg 86%
    14:00 +6°C° 0 mm 1 mps 623 mmHg 87%
    15:00 +6°C° 0 mm 1 mps 623 mmHg 89%
    16:00 +5°C° 0 mm 1 mps 622 mmHg 88%
    17:00 +3°C° 0 mm 1 mps 622 mmHg 87%
    18:00 +2°C° 0 mm 1 mps 621 mmHg 87%
    19:00 +2°C° 0 mm 1 mps 621 mmHg 86%
    20:00 +3°C° 0 mm 1 mps 622 mmHg 85%
    21:00 +3°C° 0 mm 1 mps 622 mmHg 84%
    22:00 +3°C° 0.2 mm 1 mps 622 mmHg 87%
    23:00 +3°C° 0.2 mm 1 mps 621 mmHg 89%
    Mostrar más